• en France
  • Liste des pays
  • À 7 jours
  • Température de l'eau
  • Carte satellitaire
  • Carte météo
  • Widgets météo
  • user-avatar
    Se connecter

    Météo par heure à Mekshino

    Ce jour, 18 Juillet, Mercredi

    Heure Température Précipitation Vent Pression Humidité
    00:00 +20°C° 0 mm 3 m/s 750 mmHg 74%
    01:00 +19°C° 0 mm 3 m/s 750 mmHg 76%
    02:00 +19°C° 0 mm 3 m/s 750 mmHg 78%
    03:00 +19°C° 0 mm 3 m/s 750 mmHg 80%
    04:00 +19°C° 0 mm 3 m/s 750 mmHg 82%
    05:00 +19°C° 0 mm 3 m/s 750 mmHg 83%
    06:00 +20°C° 0 mm 3 m/s 750 mmHg 78%
    07:00 +22°C° 0 mm 3 m/s 750 mmHg 72%
    08:00 +25°C° 0 mm 3 m/s 750 mmHg 65%
    09:00 +26°C° 0 mm 4 m/s 750 mmHg 59%
    10:00 +27°C° 0 mm 5 m/s 750 mmHg 52%
    11:00 +28°C° 0 mm 5 m/s 749 mmHg 46%
    12:00 +29°C° 0 mm 5 m/s 749 mmHg 45%
    13:00 +29°C° 0 mm 5 m/s 749 mmHg 44%
    14:00 +30°C° 0 mm 5 m/s 749 mmHg 43%
    15:00 +29°C° 0 mm 4 m/s 749 mmHg 45%
    16:00 +29°C° 0 mm 4 m/s 749 mmHg 47%
    17:00 +29°C° 0 mm 4 m/s 749 mmHg 49%
    18:00 +27°C° 0 mm 3 m/s 749 mmHg 56%
    19:00 +25°C° 0 mm 3 m/s 749 mmHg 64%
    20:00 +24°C° 0 mm 3 m/s 749 mmHg 71%
    21:00 +22°C° 0,3 mm 3 m/s 749 mmHg 76%
    22:00 +21°C° 0,3 mm 3 m/s 749 mmHg 82%
    23:00 +19°C° 0,3 mm 2 m/s 749 mmHg 87%

    Demain, 19 Juillet, Jeudi

    Heure Température Précipitation Vent Pression Humidité
    00:00 +19°C° 0,3 mm 2 m/s 749 mmHg 89%
    01:00 +19°C° 0,3 mm 2 m/s 749 mmHg 91%
    02:00 +19°C° 0,3 mm 2 m/s 749 mmHg 92%
    03:00 +18°C° 0,3 mm 2 m/s 749 mmHg 93%
    04:00 +18°C° 0,3 mm 3 m/s 749 mmHg 93%
    05:00 +18°C° 0,3 mm 3 m/s 749 mmHg 94%
    06:00 +18°C° 0,6 mm 3 m/s 749 mmHg 93%
    07:00 +19°C° 0,6 mm 3 m/s 749 mmHg 93%
    08:00 +19°C° 0,6 mm 3 m/s 749 mmHg 93%
    09:00 +20°C° 0,1 mm 3 m/s 749 mmHg 86%
    10:00 +22°C° 0,1 mm 4 m/s 749 mmHg 79%
    11:00 +25°C° 0,1 mm 4 m/s 748 mmHg 72%
    12:00 +25°C° 0,6 mm 4 m/s 748 mmHg 73%
    13:00 +26°C° 0,6 mm 4 m/s 748 mmHg 73%
    14:00 +27°C° 0,6 mm 4 m/s 748 mmHg 74%
    15:00 +26°C° 0,9 mm 4 m/s 748 mmHg 77%
    16:00 +25°C° 0,9 mm 4 m/s 748 mmHg 80%
    17:00 +25°C° 0,9 mm 3 m/s 748 mmHg 83%
    18:00 +24°C° 0,3 mm 3 m/s 748 mmHg 85%
    19:00 +22°C° 0,3 mm 3 m/s 748 mmHg 88%
    20:00 +21°C° 0,3 mm 3 m/s 748 mmHg 90%
    21:00 +20°C° 0 mm 2 m/s 748 mmHg 91%
    22:00 +19°C° 0 mm 2 m/s 748 mmHg 93%
    23:00 +18°C° 0 mm 2 m/s 748 mmHg 94%

    Après-demain, 20 Juillet, Vendredi

    Heure Température Précipitation Vent Pression Humidité
    00:00 +18°C° 0 mm 2 m/s 748 mmHg 94%
    01:00 +18°C° 0 mm 2 m/s 748 mmHg 95%
    02:00 +18°C° 0 mm 2 m/s 748 mmHg 95%
    03:00 +18°C° 0,1 mm 2 m/s 748 mmHg 95%
    04:00 +18°C° 0,1 mm 2 m/s 748 mmHg 95%
    05:00 +18°C° 0,1 mm 2 m/s 747 mmHg 94%
    06:00 +19°C° 0 mm 3 m/s 747 mmHg 89%
    07:00 +21°C° 0 mm 3 m/s 747 mmHg 85%
    08:00 +22°C° 0 mm 3 m/s 747 mmHg 80%
    09:00 +24°C° 0,1 mm 3 m/s 747 mmHg 77%
    10:00 +24°C° 0,1 mm 3 m/s 747 mmHg 75%
    11:00 +25°C° 0,1 mm 4 m/s 747 mmHg 73%
    12:00 +25°C° 0,2 mm 3 m/s 747 mmHg 72%
    13:00 +26°C° 0,2 mm 3 m/s 747 mmHg 71%
    14:00 +26°C° 0,2 mm 3 m/s 746 mmHg 69%
    15:00 +26°C° 0,2 mm 3 m/s 746 mmHg 71%
    16:00 +26°C° 0,2 mm 3 m/s 746 mmHg 72%
    17:00 +26°C° 0,2 mm 2 m/s 746 mmHg 73%
    18:00 +25°C° 0,3 mm 2 m/s 746 mmHg 79%
    19:00 +23°C° 0,3 mm 2 m/s 746 mmHg 85%
    20:00 +21°C° 0,3 mm 2 m/s 746 mmHg 91%
    21:00 +20°C° 0 mm 2 m/s 746 mmHg 93%
    22:00 +20°C° 0 mm 1 m/s 746 mmHg 95%
    23:00 +20°C° 0 mm 1 m/s 746 mmHg 97%

    21 Juillet, Samedi

    Heure Température Précipitation Vent Pression Humidité
    00:00 +19°C° 0 mm 1 m/s 746 mmHg 97%
    01:00 +19°C° 0 mm 1 m/s 746 mmHg 97%
    02:00 +19°C° 0 mm 1 m/s 746 mmHg 98%
    03:00 +19°C° 0 mm 1 m/s 746 mmHg 98%
    04:00 +19°C° 0 mm 1 m/s 746 mmHg 98%
    05:00 +19°C° 0 mm 1 m/s 746 mmHg 98%
    06:00 +20°C° 0 mm 1 m/s 746 mmHg 94%
    07:00 +21°C° 0 mm 1 m/s 746 mmHg 89%
    08:00 +23°C° 0 mm 1 m/s 746 mmHg 85%
    09:00 +24°C° 0,3 mm 1 m/s 746 mmHg 83%
    10:00 +25°C° 0,3 mm 1 m/s 746 mmHg 80%
    11:00 +25°C° 0,3 mm 1 m/s 746 mmHg 78%
    12:00 +26°C° 0,8 mm 1 m/s 745 mmHg 77%
    13:00 +26°C° 0,8 mm 1 m/s 745 mmHg 76%
    14:00 +27°C° 0,8 mm 1 m/s 745 mmHg 75%
    15:00 +27°C° 0,9 mm 1 m/s 745 mmHg 76%
    16:00 +26°C° 0,9 mm 2 m/s 745 mmHg 78%
    17:00 +26°C° 0,9 mm 2 m/s 745 mmHg 80%
    18:00 +25°C° 0,3 mm 2 m/s 745 mmHg 83%
    19:00 +24°C° 0,3 mm 2 m/s 745 mmHg 87%
    20:00 +23°C° 0,3 mm 2 m/s 745 mmHg 91%
    21:00 +21°C° 0 mm 2 m/s 745 mmHg 92%
    22:00 +21°C° 0 mm 2 m/s 745 mmHg 94%
    23:00 +20°C° 0 mm 2 m/s 745 mmHg 95%

    22 Juillet, Dimanche

    Heure Température Précipitation Vent Pression Humidité
    00:00 +20°C° 0,1 mm 2 m/s 745 mmHg 95%
    01:00 +19°C° 0,1 mm 2 m/s 745 mmHg 96%
    02:00 +19°C° 0,1 mm 2 m/s 745 mmHg 96%
    03:00 +19°C° 0,2 mm 2 m/s 745 mmHg 96%
    04:00 +19°C° 0,2 mm 2 m/s 745 mmHg 95%
    05:00 +18°C° 0,2 mm 3 m/s 745 mmHg 94%
    06:00 +19°C° 0,3 mm 2 m/s 745 mmHg 92%
    07:00 +19°C° 0,3 mm 2 m/s 745 mmHg 90%
    08:00 +20°C° 0,3 mm 2 m/s 745 mmHg 88%
    09:00 +21°C° 0 mm 2 m/s 745 mmHg 82%
    10:00 +24°C° 0 mm 2 m/s 745 mmHg 77%
    11:00 +25°C° 0 mm 3 m/s 745 mmHg 71%
    12:00 +26°C° 0,1 mm 3 m/s 745 mmHg 70%
    13:00 +26°C° 0,1 mm 3 m/s 745 mmHg 68%
    14:00 +27°C° 0,1 mm 3 m/s 745 mmHg 66%
    15:00 +27°C° 0,2 mm 3 m/s 745 mmHg 68%
    16:00 +27°C° 0,2 mm 3 m/s 746 mmHg 69%
    17:00 +27°C° 0,2 mm 3 m/s 746 mmHg 71%
    18:00 +25°C° 0,1 mm 3 m/s 746 mmHg 76%
    19:00 +24°C° 0,1 mm 2 m/s 746 mmHg 82%
    20:00 +23°C° 0,1 mm 2 m/s 746 mmHg 87%
    21:00 +21°C° 0 mm 2 m/s 747 mmHg 89%
    22:00 +20°C° 0 mm 2 m/s 747 mmHg 92%
    23:00 +19°C° 0 mm 2 m/s 747 mmHg 94%

    23 Juillet, Lundi

    Heure Température Précipitation Vent Pression Humidité
    00:00 +18°C° 0 mm 2 m/s 747 mmHg 93%
    01:00 +18°C° 0 mm 2 m/s 748 mmHg 91%
    02:00 +17°C° 0 mm 2 m/s 748 mmHg 90%
    03:00 +17°C° 0 mm 3 m/s 748 mmHg 88%
    04:00 +16°C° 0 mm 3 m/s 748 mmHg 85%
    05:00 +16°C° 0 mm 3 m/s 748 mmHg 83%
    06:00 +17°C° 0 mm 3 m/s 748 mmHg 77%
    07:00 +19°C° 0 mm 3 m/s 749 mmHg 72%
    08:00 +21°C° 0 mm 3 m/s 749 mmHg 66%
    09:00 +22°C° 0 mm 3 m/s 749 mmHg 61%
    10:00 +25°C° 0 mm 3 m/s 749 mmHg 57%
    11:00 +26°C° 0 mm 4 m/s 749 mmHg 53%
    12:00 +27°C° 0 mm 4 m/s 749 mmHg 51%
    13:00 +28°C° 0 mm 4 m/s 749 mmHg 50%
    14:00 +28°C° 0 mm 4 m/s 748 mmHg 48%
    15:00 +28°C° 0 mm 4 m/s 749 mmHg 50%
    16:00 +28°C° 0 mm 4 m/s 749 mmHg 52%
    17:00 +27°C° 0 mm 3 m/s 749 mmHg 54%
    18:00 +26°C° 0 mm 3 m/s 749 mmHg 60%
    19:00 +24°C° 0 mm 3 m/s 749 mmHg 67%
    20:00 +21°C° 0 mm 2 m/s 749 mmHg 74%
    21:00 +20°C° 0 mm 2 m/s 749 mmHg 73%
    22:00 +19°C° 0 mm 2 m/s 749 mmHg 73%
    23:00 +19°C° 0 mm 2 m/s 749 mmHg 73%
    Voir plus